Вернуться в каталог

STARLINK-31273

АктивенСвязьVLEO
NORAD 58846·PAYLOAD·🇺🇸 United States

Запущен Jan 24, 2024 с Vandenberg Space Force Base

Loading…

Ближайшие Пролёты (ближайшие 24 часа)

TLE

СвежийSource: CelesTrak SupGP

Эпоха: Sep 15, 2026, 03:14 UTC

1 58846C 24017W   26258.13520833 -.00000588  00000+0 -17370-4 0  2585
2 58846  53.1587  42.4433 0001170  93.1107  72.9509 15.34380988    14

Отслеживайте STARLINK-31273 в реальном времени с AllMySat

Download on the App Store